Weather History for KADW - November, 2012

Change the Weather History Date:

Thursday, November 1, 2012

  Actual Average Record
Temperature  
Mean Temperature 46 °F -  
Max Temperature 50 °F 59 °F 80 °F (2003)
Min Temperature 41 °F 39 °F 32 °F (1998)
Degree Days  
Heating Degree Days 20    
Moisture  
Dew Point 35 °F    
Average Humidity 62    
Maximum Humidity 80    
Minimum Humidity 54    
Precipitation  
Precipitation 0.00 in - - ()
Sea Level Pressure  
Sea Level Pressure 29.71 in    
Wind  
Wind Speed 7 mph (West)    
Max Wind Speed 15 mph    
Max Gust Speed 20 mph    
Visibility 10 miles    
Events      
Averages and records for this station are not official NWS values.
T = Trace of Precipitation, MM = Missing Value Source: NWS Daily Summary

Daily Weather History Graph

Daily Weather History Graph

Search for Another Location

Airport or City:

Trip Planner

Search our weather history database for the weather conditions in past years. The results will help you decide how hot, cold, wet, or windy it might be!

Date:

Astronomy

Nov. 01, 2012 Rise Set
Actual Time 7:35 AM EDT 6:06 PM EDT
Civil Twilight 7:07 AM EDT 6:34 PM EDT
Nautical Twilight 6:35 AM EDT 7:05 PM EDT
Astronomical Twilight 6:04 AM EDT 7:36 PM EDT
Moon 8:03 PM EDT (11/1) 10:04 AM EDT (11/1)
Length of Visible Light 11h 26m
Length of Day
10h 31m
Waning Gibbous, 93% of the Moon is Illuminated
Nov 1
Waning Gibbous
Nov 6
Last Quarter
Nov 13
New
Nov 20
First Quarter
Nov 28
Full

Hourly Weather History & Observations

Time (EDT) Temp. Windchill Dew Point Humidity Pressure Visibility Wind Dir Wind Speed Gust Speed Precip Events Conditions
12:55 AM 45.3 °F 44.0 °F 33.6 °F 64% 29.67 in 10.0 mi West 3.5 mph - N/A   Clear
1:55 AM 41.2 °F 39.2 °F 34.7 °F 78% 29.67 in 10.0 mi SW 3.5 mph - N/A   Clear
2:55 AM 41.4 °F 39.4 °F 34.7 °F 77% 29.67 in 10.0 mi SW 3.5 mph - N/A   Partly Cloudy
3:55 AM 42.4 °F 38.8 °F 35.2 °F 76% 29.66 in 10.0 mi WSW 5.8 mph - N/A   Mostly Cloudy
4:55 AM 42.4 °F 40.7 °F 36.7 °F 80% 29.67 in 10.0 mi SW 3.5 mph - N/A   Overcast
5:55 AM 41.7 °F 38.0 °F 36.0 °F 80% 29.67 in 10.0 mi SW 5.8 mph - N/A   Mostly Cloudy
6:55 AM 42.6 °F 39.0 °F 35.4 °F 76% 29.68 in 10.0 mi West 5.8 mph - N/A   Mostly Cloudy
7:55 AM 43.0 °F 39.5 °F 34.9 °F 73% 29.69 in 10.0 mi WSW 5.8 mph - N/A   Scattered Clouds
8:55 AM 47.8 °F - 35.8 °F 63% 29.70 in 10.0 mi SW 3.5 mph - N/A   Scattered Clouds
9:03 AM 48.2 °F - 35.6 °F 62% 29.70 in 10.0 mi SW 3.5 mph - N/A   Light Drizzle
9:20 AM 48.2 °F - 35.6 °F 62% 29.71 in 10.0 mi West 3.5 mph - N/A   Partly Cloudy
9:55 AM 49.1 °F - 34.0 °F 56% 29.71 in 10.0 mi West 6.9 mph - 0.00 in   Partly Cloudy
10:55 AM 49.3 °F - 33.6 °F 55% 29.72 in 10.0 mi WNW 11.5 mph - N/A   Partly Cloudy
11:55 AM 49.1 °F - 34.2 °F 56% 29.73 in 10.0 mi West 13.8 mph - N/A   Partly Cloudy
12:14 PM 48.2 °F - 33.8 °F 58% 29.72 in 10.0 mi West 13.8 mph - N/A   Light Drizzle
12:48 PM 50.0 °F - 33.8 °F 54% 29.71 in 10.0 mi West 15.0 mph 19.6 mph N/A   Light Drizzle
12:55 PM 49.1 °F - 33.8 °F 56% 29.71 in 10.0 mi West 12.7 mph 19.6 mph 0.00 in   Light Drizzle
12:59 PM 50.0 °F - 33.8 °F 54% 29.71 in 10.0 mi West 10.4 mph - N/A   Partly Cloudy
1:18 PM 50.0 °F - 33.8 °F 54% 29.70 in 10.0 mi West 9.2 mph - N/A   Light Drizzle
1:41 PM 48.2 °F - 35.6 °F 62% 29.70 in 10.0 mi West 10.4 mph - N/A   Clear
1:55 PM 49.1 °F - 35.4 °F 59% 29.70 in 10.0 mi WSW 9.2 mph - 0.00 in   Clear
2:55 PM 49.5 °F - 36.9 °F 62% 29.69 in 10.0 mi WSW 5.8 mph - N/A   Clear
3:55 PM 50.2 °F - 34.7 °F 55% 29.69 in 10.0 mi West 9.2 mph - N/A   Scattered Clouds
4:55 PM 50.5 °F - 35.1 °F 55% 29.69 in 10.0 mi West 10.4 mph - N/A   Scattered Clouds
5:55 PM 50.0 °F - 35.1 °F 57% 29.70 in 10.0 mi NW 9.2 mph - N/A   Mostly Cloudy
6:55 PM 49.3 °F - 35.2 °F 58% 29.72 in 10.0 mi WNW 6.9 mph - N/A   Mostly Cloudy
7:55 PM 48.7 °F - 34.9 °F 59% 29.73 in 10.0 mi WNW 8.1 mph - N/A   Overcast
8:27 PM 48.2 °F - 33.8 °F 58% 29.74 in 10.0 mi WNW 9.2 mph - N/A   Light Drizzle
8:36 PM 48.2 °F - 33.8 °F 58% 29.74 in 10.0 mi WNW 11.5 mph - N/A   Scattered Clouds
8:55 PM 48.4 °F - 34.0 °F 58% 29.74 in 10.0 mi WNW 11.5 mph - 0.00 in   Scattered Clouds
9:55 PM 47.8 °F - 34.3 °F 60% 29.75 in 10.0 mi West 8.1 mph - N/A   Overcast
10:31 PM 48.2 °F - 33.8 °F 58% 29.76 in 10.0 mi West 11.5 mph - N/A   Light Drizzle
10:40 PM 48.2 °F - 33.8 °F 58% 29.76 in 10.0 mi West 9.2 mph - N/A   Scattered Clouds
10:55 PM 47.8 °F - 33.4 °F 57% 29.76 in 10.0 mi West 9.2 mph - 0.00 in   Mostly Cloudy
11:55 PM 46.4 °F 42.9 °F 32.9 °F 59% 29.76 in 10.0 mi West 6.9 mph - N/A   Partly Cloudy